Location: Cuguron
(43.0994°N, 0.5363°E)
Time: 14:44:30
(UTC+00:00)

Cosmos 2058 Rocket - Pass Details

Date: 15 May 2026
Orbit: 604 x 632 km, 82.5° (Epoch: 10 June)

Event Time Altitude Azimuth Distance (km) Brightness Sun altitude
Exits shadow 22:31:01 77° 346° (NNW) 628 3.1 -25.0°
Drops below altitude 10° 22:35:04 10° 7° (N) 1,963 6.4 -25.2°
Sets 22:37:17 0° 8° (N) 2,870 7.4 -25.4°
